Regional Weather Roundup
Issued by NWS

Home | Current Version | Previous Version | Graphics & Text | Print | Product List | Glossary On
Versions: 1 2 3 4 5 6 7 8 9 10 11 12 13 14 15 16 17 18 19 20 21 22 23 24 25 26 27 28 29 30 31 32 33 34 35 36 37 38 39 40 41 42 43 44 45 46 47 48 49 50
000
ASUS45 KSLC 221610
RWRUT

UTAH REGIONAL WEATHER ROUNDUP
NATIONAL WEATHER SERVICE SALT LAKE CITY UT
900 AM MST SAT NOV 22 2014

UTZ001>011-023>025-221700-

NORTHERN UTAH

CITY           SKY/WX    TMP DP  RH WIND       PRES   REMARKS
BRIGHAM CITY   CLOUDY    45  28  51 S15G22    29.88R
HILL AFB       CLOUDY    46  25  43 S18G28    29.85R
LOGAN          LGT RAIN  44  33  65 S15G24    29.86R
OGDEN          CLOUDY    47  26  44 S16G25    29.84R
PROVO AIRPORT  PTSUNNY   41  25  52 SE5       29.92F
SALT LAKE CITY CLOUDY    49  24  37 S22G31    29.83F
VERNAL         CLOUDY    30  18  60 N5        29.97F WCI  25
WENDOVER       CLOUDY    36  27  69 SW9       29.85S WCI  29
HEBER CITY     MOSUNNY   45  23  42 CALM      29.88F
WEST JORDAN    MOSUNNY   46  30  53 S25G33    29.86S

$$

UTZ012>022-026-027-221700-

SOUTHERN/CENTRAL UTAH

CITY           SKY/WX    TMP DP  RH WIND       PRES   REMARKS
BLANDING       SUNNY     36  21  53 SE3       30.18S
BRYCE CANYON   SUNNY     29  22  75 CALM      30.10F
CEDAR CITY     SUNNY     43  23  45 S10       30.06S
DELTA          PTSUNNY   44  26  48 S18       29.93F
MILFORD        MOSUNNY   44  25  47 SW24      29.99F
MOAB/CYNLANDS  SUNNY     34  17  50 SE7       30.02F WCI  28
PRICE          SUNNY     35  15  44 E5        30.00F WCI  31
ST GEORGE      MOSUNNY   39  21  48 NW3       30.13R
KANAB          MOSUNNY   34  19  55 CALM      30.16S

$$

REGIONAL REPORTS     COLORADO/ARIZONA

CITY           SKY/WX    TMP DP  RH WIND       PRES   REMARKS
CRAIG, CO      PTSUNNY   30  24  78 CALM      29.95F
GRAND JUNCTION MOSUNNY   33  19  56 SE9       30.03F WCI  25
RIFLE          MOSUNNY   26  20  77 CALM      30.07F
MONTROSE       SUNNY     34  21  59 S5        30.10F WCI  30
CORTEZ         SUNNY     33  23  66 E3        30.12F
PAGE, AZ       NOT AVBL
GRAND CANYON   MOSUNNY   31  16  54 CALM      30.17R
KINGMAN        SUNNY     50  22  33 CALM      30.11R
FLAGSTAFF      SUNNY     35  22  58 CALM      30.15F

$$

REGIONAL REPORTS    NEVADA/IDAHO/WYOMING

CITY           SKY/WX    TMP DP  RH WIND       PRES   REMARKS
LAS VEGAS, NV  PTSUNNY   52  29  41 S5        30.02F
ELY            CLOUDY    40  21  46 SW8       30.01R WCI  34
ELKO           CLOUDY    42  37  82 SW13      29.86F
POCATELLO, ID  LGT RAIN  41  36  82 S25G37    29.70F
BURLEY         LGT RAIN  43  38  82 S24G37    29.69F
EVANSTON, WY   MOSUNNY   38  23  55 SW13      29.81F WCI  30
ROCK SPRINGS   MOSUNNY   37  19  48 S5        29.82F WCI  33
KEMMERER       PTSUNNY   37  23  56 SW29G38   29.77F WCI  25

$$



USA.gov is the U.S. government's official web portal to all federal, state and local government web resources and services.